N4MRV-1 Weather Reports


Display with metric or nautical units.
time (UTC)temp
F
wind
direction
speed
MPH
gust
MPH
rain 1hr
in
rain 24hr
in
rain mn
in
humidity
%
barometer
mb
20260509110017 52 0.0 3.0 0.00 0.00 0.00 87 1013.1
20260509104517 52 0.0 2.0 0.00 0.00 0.00 86 1013.1
20260509103036 52 0.0 1.0 0.00 0.00 0.00 86 1013.0
20260509101517 52 0.0 3.0 0.00 0.00 0.00 85 1013.0
20260509100016 52 0.0 2.0 0.00 0.00 0.00 84 1013.0
20260509094516 52 0.0 2.0 0.00 0.00 0.00 83 1013.0
20260509093016 52 0.0 1.0 0.00 0.00 0.00 83 1013.1
20260509091516 52 0.0 0.0 0.00 0.00 0.00 82 1013.1
20260509090016 52 0.0 0.0 0.00 0.00 0.00 81 1013.0
20260509084516 52 0.0 0.0 0.00 0.00 0.00 80 1013.1
20260509083016 53 0.0 0.0 0.00 0.00 0.00 79 1012.9
20260509081516 53 0.0 0.0 0.00 0.00 0.00 79 1012.9
20260509080016 53 0.0 0.0 0.00 0.00 0.00 78 1012.8
20260509074516 53 0.0 0.0 0.00 0.00 0.00 77 1013.0
20260509073016 54 0.0 0.0 0.00 0.00 0.00 75 1013.2
20260509071516 54 0.0 0.0 0.00 0.00 0.00 74 1013.4
20260509070016 54 0.0 0.0 0.00 0.00 0.00 73 1013.4
20260509064516 54 0.0 0.0 0.00 0.00 0.00 72 1013.7
20260509063016 54 0.0 1.0 0.00 0.00 0.00 71 1014.0
20260509061516 54 0.0 1.0 0.00 0.00 0.00 71 1014.1
20260509060016 54 0.0 2.0 0.00 0.00 0.00 70 1014.2
20260509054516 54 0.0 2.0 0.00 0.00 0.00 69 1014.3
20260509053016 54 0.0 2.0 0.00 0.00 0.00 69 1014.3
20260509051536 54 0.0 1.0 0.00 0.00 0.00 68 1014.0
20260509050016 54 0.0 0.0 0.00 0.00 0.00 67 1014.0
20260509044516 54 0.0 1.0 0.00 0.00 0.00 67 1013.8
20260509043016 54 0.0 4.0 0.00 0.00 0.00 66 1013.9
20260509041515 55 0.0 0.0 0.00 0.00 0.00 64 1014.0
20260509040016 55 0.0 0.0 0.00 0.00 0.00 63 1013.9
20260509034516 55 0.0 0.0 0.00 0.00 0.00 61 1014.3
20260509033016 55 0.0 0.0 0.00 0.00 0.00 60 1014.3
20260509031516 55 0.0 0.0 0.00 0.00 0.00 59 1014.3
20260509030036 56 0.0 2.0 0.00 0.00 0.00 58 1014.3
20260509024516 56 0.0 0.0 0.00 0.00 0.00 58 1014.3
20260509023016 57 0.0 1.0 0.00 0.00 0.00 57 1014.3
20260509021516 57 0.0 0.0 0.00 0.00 0.00 57 1014.2
20260509020016 58 0.0 1.0 0.00 0.00 0.00 55 1014.0
20260509014516 59 0.0 0.0 0.00 0.00 0.00 55 1014.0
20260509013016 60 0.0 0.0 0.00 0.00 0.00 52 1013.9
20260509011516 60 0.0 1.0 0.00 0.00 0.00 51 1013.7
20260509010036 61 0.0 0.0 0.00 0.00 0.00 51 1013.7
20260509004516 62 0.0 1.0 0.00 0.00 0.00 48 1013.7
20260509003016 63 0.0 0.0 0.00 0.00 0.00 46 1013.6
20260509001516 64 0.0 1.0 0.00 0.00 0.00 44 1013.5
20260509000016 66 0.0 1.0 0.00 0.00 0.00 43 1013.4
20260508234536 67 0.0 1.0 0.00 0.00 0.00 41 1013.1
20260508233016 68 0.0 4.0 0.00 0.00 0.00 39 1013.0
20260508231516 69 158 1.0 5.0 0.00 0.00 0.00 37 1012.9
20260508230016 71 0.0 2.0 0.00 0.00 0.00 36 1012.9
20260508224516 71 158 1.0 4.0 0.00 0.00 0.00 34 1012.9
20260508223016 72 293 1.0 3.0 0.00 0.00 0.00 33 1013.0
20260508221516 72 293 1.0 3.0 0.00 0.00 0.00 34 1013.2
20260508220016 70 135 1.0 5.0 0.00 0.00 0.00 36 1013.2
20260508214516 70 315 1.0 8.0 0.00 0.00 0.00 35 1013.3
20260508213036 70 293 1.0 4.0 0.00 0.00 0.00 34 1013.3
20260508211536 71 203 1.0 4.0 0.00 0.00 0.00 35 1013.3
20260508210036 71 158 1.0 3.0 0.00 0.00 0.00 35 1013.4
20260508204536 70 315 2.0 8.0 0.00 0.00 0.00 35 1013.5
20260508203015 70 315 1.0 4.0 0.00 0.00 0.00 36 1013.7
20260508201516 70 45 1.0 3.0 0.00 0.01 0.00 36 1013.7
20260508200015 70 225 2.0 4.0 0.00 0.02 0.00 36 1013.9
20260508194536 70 180 1.0 8.0 0.00 0.03 0.00 34 1014.1
20260508193015 70 315 2.0 7.0 0.00 0.03 0.00 37 1014.3
20260508191516 70 315 2.0 6.0 0.00 0.03 0.00 40 1014.7
20260508190015 69 338 1.0 4.0 0.00 0.03 0.00 35 1014.7
20260508184535 68 315 2.0 4.0 0.00 0.03 0.00 37 1014.9
20260508183015 68 270 2.0 6.0 0.00 0.03 0.00 37 1015.2
20260508181515 67 293 1.0 6.0 0.00 0.03 0.00 43 1015.3
20260508180015 67 293 1.0 6.0 0.00 0.03 0.00 37 1015.5
20260508174516 67 315 1.0 4.0 0.00 0.03 0.00 39 1015.7
20260508173035 67 113 2.0 8.0 0.00 0.03 0.00 39 1015.7
20260508171515 67 315 1.0 3.0 0.00 0.03 0.00 39 1016.0
20260508170015 67 293 1.0 6.0 0.00 0.03 0.00 39 1016.2
20260508164517 67 135 1.0 3.0 0.00 0.03 0.00 37 1016.4
20260508163017 67 45 1.0 4.0 0.00 0.03 0.00 37 1016.7
20260508161517 68 158 1.0 4.0 0.00 0.03 0.00 38 1016.9
20260508160017 67 338 1.0 4.0 0.00 0.03 0.00 39 1017.1
20260508154517 67 338 1.0 4.0 0.00 0.03 0.00 39 1017.3
20260508153017 66 45 1.0 4.0 0.00 0.03 0.00 40 1017.4
20260508151557 64 338 1.0 3.0 0.00 0.03 0.00 43 1017.5
20260508150017 62 338 1.0 4.0 0.00 0.04 0.00 43 1017.7
20260508144537 60 113 1.0 3.0 0.00 0.04 0.00 48 1017.6
20260508143017 58 315 1.0 4.0 0.00 0.04 0.00 54 1017.5
20260508141517 57 0 1.0 3.0 0.00 0.04 0.00 57 1017.6
20260508140017 56 0 1.0 3.0 0.00 0.04 0.00 61 1017.7
20260508134517 54 0 1.0 4.0 0.00 0.04 0.00 66 1017.7
20260508133017 52 0 1.0 3.0 0.00 0.04 0.00 73 1017.8
20260508131517 50 0.0 3.0 0.00 0.04 0.00 82 1017.7
20260508130017 49 0.0 3.0 0.00 0.04 0.00 93 1017.6
20260508124517 48 0.0 3.0 0.00 0.04 0.00 96 1017.7
20260508123016 47 0.0 3.0 0.00 0.04 0.00 96 1017.6
20260508121516 47 0.0 1.0 0.00 0.04 0.00 96 1017.4
20260508120017 45 0.0 0.0 0.00 0.04 0.00 95 1017.0
20260508114516 44 0.0 1.0 0.00 0.04 0.00 95 1016.8
20260508113016 44 0.0 0.0 0.00 0.04 0.00 95 1016.7
20260508111517 43 0.0 0.0 0.00 0.04 0.00 94 1016.4